Home > Weather > Liberia > Past weeks

Flag for Costa Rica Weather for the Past 2 Weeks in Liberia, Costa Rica

Now
68 °F

Clear.


Feels Like: 68 °F
Forecast: 76 / 90 °F
Wind: 7 mph from East

Location: Juan Santamaria

Current Time: May 4, 2016 at 5:53:27 AM

Latest Report: May 4, 2016 at 5:00 AM


Visibility: 10 mi

Pressure: 30.03 "Hg

Humidity: 78%

Dew Point: 61 °F

Location of LiberiaLocation

Historic Weather in Liberia — Graph

°F

Liberia Temperature Yesterday

Maximum temperature yesterday: 82 °F (at 9:00 AM)
Minimum temperature yesterday: 70 °F (at 2:00 AM)
Average temperature yesterday: 74 °F

High & Low Weather Summary for the Past Weeks

 TemperatureHumidityPressure
High88 °F (Apr 21, 11:00 AM)94% (Apr 24, 5:00 AM)30.08 "Hg (Apr 24, 5:00 AM)
Low66 °F (May 1, 4:00 AM)31% (Apr 21, 11:00 AM)29.89 "Hg (Apr 21, 3:00 PM)
Average75 °F72%29.99 "Hg
* Reported Apr 19 5:00 AM — May 4 5:00 AM, Liberia, Weather by CustomWeather, © 2016

Note: Actual official high and low records may vary slightly from our data, if they occured in-between our weather recording intervals... More about our weather records

Advertising

Liberia Weather History for the Previous 24 Hours

Scroll right to see more
 ConditionsComfort  
Time TempWeatherWind HumidityBarometerVisibility
5:00 AM
Wed, May 4
68 °FClear.7 mph78%30.03 "Hg10 mi
4:00 AM68 °FClear.3 mph83%30.01 "Hg10 mi
3:00 AM70 °FClear.3 mph83%30.01 "Hg10 mi
2:00 AM68 °FClear.5 mph88%30.02 "Hg10 mi
1:00 AM68 °FClear.3 mph88%30.05 "Hg10 mi
12:00 AM70 °FClear.No wind83%30.07 "Hg10 mi
11:00 PM
Tue, May 3
70 °FClear.5 mph88%30.08 "Hg10 mi
10:00 PM70 °FClear.2 mph88%30.08 "Hg10 mi
9:00 PM72 °FPassing clouds.3 mph78%30.08 "HgN/A
8:00 PM72 °FPartly cloudy.3 mph83%30.06 "HgN/A
7:00 PM72 °FPartly cloudy.6 mph83%30.05 "HgN/A
6:00 PM72 °FPartly cloudy.9 mph83%30.03 "HgN/A
5:00 PM72 °FLight rain. Broken clouds.7 mph83%30.00 "HgN/A
4:00 PM77 °FScattered showers. Broken clouds.10 mph74%29.98 "HgN/A
3:00 PM79 °FScattered showers. Partly sunny.13 mph70%29.98 "HgN/A
2:00 PM82 °FScattered showers. Partly sunny.16 mph62%29.99 "HgN/A
1:00 PM79 °FBroken clouds.17 mph70%30.01 "HgN/A
12:00 PM79 °FBroken clouds.17 mph70%30.03 "HgN/A
11:00 AM81 °FBroken clouds.14 mph62%30.05 "HgN/A
10:00 AM82 °FBroken clouds.6 mph55%30.06 "HgN/A
9:00 AM82 °FBroken clouds.3 mph58%30.08 "HgN/A
8:00 AM77 °FBroken clouds.2 mph69%30.06 "HgN/A
7:00 AM72 °FBroken clouds.6 mph83%30.05 "HgN/A
6:00 AM70 °FPartly sunny.2 mph88%30.04 "HgN/A
5:00 AM70 °FFog.2 mph88%30.03 "Hg5 mi
Weather by CustomWeather, © 2016

See weather overviewHow to use our weather pages